Weather in Kitzingen

Germany     49°44′07″N   10°09′41″E
temp.,
°C
wind,
m/s
gust,
m/s
humid.,
%
clouds,
%
prec.,
mm/h
press.,
hPa
HPBL,
m
4 march, thu
thu401:00+7sw237988 0.0 102551
04:00+6sw2283100 0.0 102332
07:00+5sw339084 0.0 102170
10:00+9wsw477780 0.0 1020378
13:00+12wsw686886 0.4 10181225
16:00+11w697171 0.6 10171059
19:00+7wnw378982 1.9 1016253
22:00+7nnw3693100 5.3 1018455
5 march, fri
fri501:00+5n6888100 6.4 1019570
04:00+3n369299 0.1 1020468
07:00+2nne4878100 0.1 1022694
10:00+2ne577396 0.1 1025937
13:00+4ne566096 0.1 10261359
16:00+4ne565430 0.0 10271452
19:000ne387158 0.0 1030219
22:00−1ene23720 0.0 103280
6 march, sat
sat601:00−1ene25720 0.0 1033138
04:00−1ene24680 0.0 1033126
07:00−2ene23670 0.0 103491
10:00+3e34440 0.0 1034866
13:00+5e34340 0.0 10331237
16:00+6ne23340 0.0 10311243
19:00+1ne225015 0.0 103122
22:00−1ese12490 0.0 103121
7 march, sun
sun701:00−1ene11490 0.0 103021
04:00−1e11510 0.0 102821
07:00−2se11540 0.0 102721
10:00+3sse11400 0.0 1026392
13:00+6wnw11360 0.0 1024802
16:00+6nnw223973 0.0 1021794
19:00+1ssw004954 0.0 102222
22:000nw115384 0.0 102322
8 march, mon
mon801:00−1nw116271 0.0 102221
04:00−2n116664 0.0 102121
07:00−1nne116677 0.0 102221
10:00+2ne1253100 0.0 1022386
13:00+5nne1249100 0.0 1022945
16:00+5nnw2251100 0.0 10211070
19:00+1nnw2266100 0.0 102222
22:00−1ene238331 0.0 102341